Date,TemperatureHighF,TemperatureAvgF,TemperatureLowF,DewpointHighF,DewpointAvgF,DewpointLowF,HumidityHigh,HumidityAvg,HumidityLow,PressureMaxIn,PressureMinIn,WindSpeedMaxMPH,WindSpeedAvgMPH,GustSpeedMaxMPH,PrecipitationSumIn
2013-1-1,29.7,26.2,20.4,23.6,19.5,13.0,81,76,69,29.67,29.57,10,1,10,0.00
2013-1-2,27.9,21.4,16.1,18.7,14.6,8.3,86,75,63,29.72,29.63,9,2,9,0.00
2013-1-3,32.7,26.0,15.7,26.8,20.7,9.4,90,80,72,29.74,29.60,16,4,16,0.00
2013-1-4,36.0,24.9,15.6,24.3,19.5,10.9,89,80,59,29.74,29.63,14,4,14,0.00
2013-1-5,38.1,28.8,17.8,31.9,25.3,16.4,96,87,69,29.76,29.51,14,2,14,0.01
2013-1-6,35.7,33.0,28.1,32.7,29.2,25.1,91,86,79,29.82,29.42,19,4,19,0.03
2013-1-7,30.2,22.4,18.8,25.5,20.1,17.0,96,91,76,29.86,29.82,13,1,13,0.00
2013-1-13,39.0,32.3,22.8,37.1,30.9,19.5,98,94,85,29.65,29.34,7,2,16,0.14
2013-1-14,25.0,21.2,16.9,19.5,17.3,14.0,93,85,77,29.95,29.67,5,2,16,0.00
2013-1-15,30.8,20.6,12.8,23.5,16.9,11.4,96,86,65,29.93,29.69,1,0,5,0.00
2013-1-16,36.4,26.2,14.7,30.4,20.8,13.5,97,81,55,29.69,29.36,8,3,18,0.00
2013-1-17,36.2,31.0,24.4,31.3,22.7,14.7,86,71,61,29.88,29.51,5,2,14,0.00
2013-1-18,39.7,30.6,22.2,28.5,21.8,15.8,83,70,61,29.92,29.48,7,3,25,0.00
2013-1-19,49.1,42.5,37.9,37.5,32.9,27.7,75,69,58,29.48,29.23,12,6,27,0.00
2013-1-20,41.2,24.7,17.7,32.9,16.2,8.6,80,70,46,29.77,29.27,19,6,32,0.00
2013-1-21,19.7,16.3,12.5,9.8,7.3,2.3,83,67,58,29.68,29.60,23,6,23,0.00
2013-1-22,13.3,9.4,6.2,6.8,4.3,1.5,88,80,64,29.85,29.73,12,4,15,0.00
2013-1-23,21.1,15.5,10.7,18.0,8.5,2.3,93,73,63,29.81,29.59,20,3,20,0.00
2013-1-24,22.2,16.1,8.3,14.5,9.0,3.5,92,75,46,30.12,29.71,16,1,17,0.00
2013-1-25,26.8,21.1,16.4,22.6,16.1,8.3,91,81,70,29.92,29.49,4,1,11,0.00
2013-1-26,27.8,25.0,19.1,22.7,19.5,16.7,90,79,73,29.91,29.57,4,2,15,0.00
2013-1-27,34.0,26.7,18.2,32.5,22.9,15.5,94,85,75,29.91,29.49,2,1,9,0.00
2013-1-28,50.0,41.5,34.7,49.5,40.9,33.4,99,97,94,29.50,29.35,5,2,16,0.33
2013-1-29,58.7,54.4,38.5,57.6,53.4,38.2,99,96,91,29.42,28.90,19,3,19,0.83
2013-1-30,52.4,40.5,26.0,52.1,39.3,21.6,99,96,83,29.02,28.64,24,3,24,0.66
2013-1-31,26.0,18.4,11.9,22.0,13.8,9.0,91,82,73,29.56,29.02,22,7,22,0.00